Overview Statistics Trail Chart Weather Telemetry Raw packets
 

This is the latest recevied weather packets stored in our database for station/object KN6WGU. If no packets are shown the sender has not sent any weather packets the latest 10 day(s).

<< 49 50 51 52 53 54 55 >>
Time Temp. Humidity Pressure Rain* Wind** Luminosity Snow
1788289136 32.22° C 65% 1008.3 hPa 0 mm - 547 W/m² -
1788288835 32.22° C 65% 1008.2 hPa 0 mm - 588 W/m² -
1788288531 32.22° C 65% 1008.1 hPa 0 mm - 553 W/m² -
1788288227 32.22° C 67% 1008.3 hPa 0 mm - 605 W/m² -
1788287922 31.67° C 65% 1008.1 hPa 0 mm - 565 W/m² -
1788287621 32.22° C 64% 1008 hPa 0 mm - 613 W/m² -
1788287317 31.11° C 66% 1008.2 hPa 0 mm - 559 W/m² -
1788287012 31.11° C 66% 1008.4 hPa 0 mm - 630 W/m² -
1788286707 31.11° C 65% 1008.3 hPa 0 mm - 632 W/m² -
1788286407 31.67° C 65% 1008.6 hPa 0 mm - 627 W/m² -
1788286106 31.11° C 65% 1008.4 hPa 0 mm - 635 W/m² -
1788285805 31.11° C 69% 1008.4 hPa 0 mm - 622 W/m² -
1788285504 31.11° C 67% 1008.4 hPa 0 mm - 602 W/m² -
1788285199 30.56° C 69% 1008.6 hPa 0 mm - 633 W/m² -
1788284894 30.56° C 70% 1008.7 hPa 0 mm - 631 W/m² -
1788284590 30° C 70% 1008.8 hPa 0 mm - 641 W/m² -
1788284285 30° C 70% 1008.7 hPa 0 mm - 526 W/m² -
1788283981 30° C 70% 1008.9 hPa 0 mm - 504 W/m² -
1788283677 30.56° C 71% 1008.9 hPa 0 mm - 386 W/m² -
1788283376 30° C 72% 1008.7 hPa 0 mm - 221 W/m² -
1788283074 30° C 72% 1008.9 hPa 0 mm - 183 W/m² -
1788282774 30° C 71% 1009 hPa 0 mm - 113 W/m² -
1788282473 30.56° C 70% 1009 hPa 0 mm - 128 W/m² -
1788282173 30.56° C 70% 1009.1 hPa 0 mm - 179 W/m² -
1788281871 30.56° C 69% 1009.1 hPa 0 mm - 529 W/m² -

* Rain latest hour (hover to see other rain measurements)
** Current wind speed in m/s (hover to see current wind gust speed)